Regional Weather Roundup
Issued by NWS Wakefield, VA

Current Version | Previous Version | Text Only | Print | Product List | Glossary Off
Versions: 1 2 3 4 5 6 7 8 9 10 11 12 13 14 15 16 17 18 19 20 21 22 23 24 25 26 27 28 29 30 31 32 33 34 35 36 37 38 39 40 41 42 43 44 45 46 47 48 49 50

000
ASUS41 KAKQ 281215
RWRAKQ

REGIONAL WEATHER ROUNDUP
NATIONAL WEATHER SERVICE WAKEFIELD VA
800 AM EDT WED JUN 28 2017

Note: "fair" indicates few or no clouds below 12,000 feet with no
significant weather and/or obstructions to visibility. * = Denotes
station may not report precipitation (e.g., rain,snow,etc.),
thunder or fog.

VAZ042-051-052>054-056-281300-
NORTHERN VIRGINIA

CITY           SKY/WX    TMP DP  RH WIND       PRES   REMARKS
WASH NATIONAL  MOSUNNY   68  51  54 W5        30.20R
DULLES         MOSUNNY   62  51  67 S5        30.20R
FORT BELVOIR   SUNNY     66  51  60 NW5       30.19R
QUANTICO       SUNNY     64  54  69 NW8       30.21R
FREDERICKSBRG* SUNNY     62  55  76 CALM      30.20R
STAFFORD*      SUNNY     60  55  85 CALM      30.25R
WARRENTON      SUNNY     61  51  69 CALM      30.21R
CULPEPER*      SUNNY     59  55  84 CALM      30.22R
MANASSAS*      SUNNY     58  53  84 SW3       30.21R
LEESBURG*      SUNNY     64  55  72 W3        30.21R
WINCHESTER     SUNNY     59  50  72 SW6       30.20R
FRONT ROYAL*   SUNNY     59  50  72 S7        30.20R
LURAY*         SUNNY     55  52  88 CALM      30.22R
$$

VAZ048-049-060>072-079>083-281300-
CENTRAL AND SOUTH CENTRAL VIRGINIA

CITY           SKY/WX    TMP DP  RH WIND       PRES   REMARKS
RICHMOND       SUNNY     67  54  63 N3        30.19R
CHESTERFIELD*  FAIR      65  56  72 N3        30.20R
PETERSBURG*    SUNNY     65  54  68 CALM      30.20R
HANOVER        SUNNY     63  56  78 CALM      30.21R
TAPPAHANNOCK*  SUNNY     65  56  70 CALM      30.20R
QUINTON*       FAIR      62  56  80 N5        30.19R
CHARLOTTSVILLE SUNNY     61  52  72 CALM      30.21R
GORDONSVILLE*  SUNNY     59  55  84 CALM      30.20R
ORANGE*        SUNNY     59  54  82 CALM      30.21R
LOUISA*        SUNNY     64  57  77 CALM      30.20R HAZE
BUMPASS*       FAIR      60  56  89 CALM      30.20S
FARMVILLE*     SUNNY     60  53  78 CALM      30.20R
CREWE*         FAIR      61  56  86 CALM      30.20R
FORT PICKETT*  FAIR      65  48  54 CALM      30.20S
CHASE CITY*    FAIR      65  54  68 CALM      30.21R
CLARKSVILLE*   FAIR      64  55  72 CALM      30.20S
SOUTH HILL*    SUNNY     64  55  73 N3        30.26R
LAWRENCEVILLE* FAIR      65  54  68 CALM      30.20R
EMPORIA*       SUNNY     63  55  77 NW3       30.20R
$$

VAZ088>098-281300-
SOUTHEAST VIRGINIA

CITY           SKY/WX    TMP DP  RH WIND       PRES   REMARKS
NORFOLK        SUNNY     73  55  53 NE12      30.16R
VIRGINIA BEACH MOSUNNY   70  55  59 NE12      30.16R
NORFOLK NAVAL  MOSUNNY   74  56  53 NE10      30.18R
WEST POINT*    SUNNY     65  58  77 CALM      30.20R
SALUDA*        FAIR      70  57  64 N3        30.18R
NEWPORT NEWS   NOT AVBL
LANGLEY AFB    NOT AVBL
FORT EUSTIS    SUNNY     72  54  52 N5        30.16R
WILLIAMSBURG*  SUNNY     64  59  82 CALM      30.19R
HR EXEC AP*    FAIR      70  61  73 N5        30.15R
FRANKLIN*      SUNNY     64  57  77 N5        30.18R
US460-WAKEFLD  SUNNY     66  58  75 CALM      30.19R
$$

VAZ020-022-025-037-045-281300-
WEST CENTRAL AND SOUTHWEST VIRGINIA

CITY           SKY/WX    TMP DP  RH WIND       PRES   REMARKS
STAUNTON*      SUNNY     53  49  86 CALM      30.25R
WAYNESBORO*    SUNNY     56  52  86 CALM      30.23R
HOT SPRINGS VA SUNNY     54  39  58 CALM      30.26S
LYNCHBURG      SUNNY     59  52  77 CALM      30.22R
DANVILLE       SUNNY     63  58  83 CALM      30.21R
SOUTH BOSTON*  FAIR      61  60  94 CALM      30.21S
MARTINSVILLE   SUNNY     56  52  87 CALM      30.23F
ROANOKE        SUNNY     59  51  75 CALM      30.24S
BLACKSBURG     SUNNY     54  49  82 CALM      30.26F
DUBLIN*        SUNNY     55  47  72 CALM      30.25F
MARION*        SUNNY     54  50  85 CALM      30.26F
HILLSVILLE*    SUNNY     50  45  84 CALM      30.24S
RICHLANDS*     FAIR      57  40  53 CALM      30.23S
WISE*          SUNNY     61  46  59 CALM      30.23R
ABINGDON*      SUNNY     57  51  80 E8        30.22S
$$

MDZ021>025-VAZ099-100-281300-
SOUTHERN MARYLAND AND THE DELMARVA PENINSULA

CITY           SKY/WX    TMP DP  RH WIND       PRES   REMARKS
PATUXENT RIVER MOSUNNY   70  56  61 N3        30.17R
BAY BRIDGE APT SUNNY     70  50  49 N5        30.17R
LEONARDTOWN    SUNNY     64  54  68 CALM      30.19R
DOVER          SUNNY     66  55  66 NW6       30.15R
GEORGETOWN     SUNNY     66  52  60 NW3       30.17R
EASTON         SUNNY     66  54  63 CALM      30.21R
CAMBRIDGE      SUNNY     66  57  72 CALM      30.17R
SALISBURY      SUNNY     66  56  70 N5        30.17R
OCEAN CITY     SUNNY     67  55  65 NW7       30.17R
WALLOPS ISLAND MOSUNNY   66  53  63 N9        30.17R
ACCOMACK*      MOSUNNY   69  54  59 NE5       30.17R
$$

NCZ012>017-030>032-281300-
NORTH CENTRAL AND EASTERN NORTH CAROLINA

CITY           SKY/WX    TMP DP  RH WIND       PRES   REMARKS
ROANOKE RAPIDS FAIR      63  55  77 CALM      30.18R
RALEIGH        MOSUNNY   65  55  70 E7        30.19R
ELIZABETH CITY SUNNY     70  63  78 N10       30.16R
AHOSKIE*         N/A     64  56  78 N5        30.17S
EDENTON*       SUNNY     67  60  77 CALM      30.17R
CURRITUCK*     SUNNY     71  58  62 N15       30.16R
KILL DEVIL HLS SUNNY     72  65  79 N5        30.13R
MANTEO         SUNNY     73  65  77 NE12G17   30.14R
CAPE HATTERAS  NOT AVBL
TARBORO*       NOT AVBL
GOLDSBORO      SUNNY     67  59  75 NE9       30.15R
WASHINGTON       N/A    N/A N/A N/A N6        30.16R
GREENVILLE     SUNNY     64  59  82 N6        30.17S
NEW BERN       MOSUNNY   70  61  73 CALM      30.17R
WILMINGTON     MOSUNNY   72  60  66 NE6       30.14R
$$

VAZ048-281300-
ELSEWHERE

CITY           SKY/WX    TMP DP  RH WIND       PRES   REMARKS
HARRISBURG PA  SUNNY     62  51  67 NW6       30.16R
BALTIMORE      MOSUNNY   65  52  62 NW5       30.17R
ANNAPOLIS      SUNNY     66  56  70 N5        30.17R
ANDREWS AFB    SUNNY     65  50  56 SW3       30.18R
PHILADELPHIA   MOSUNNY   66  49  54 NW12      30.15R
HENDERSON NC   SUNNY     59  53  80 CALM      30.20R
GREENSBORO     MOSUNNY   64  56  75 E7        30.20R
ROCKY MOUNT    SUNNY     66  57  72 NE7       30.18R
$$

VAZ100-281300-
MARINE

STATION/POSITION TIME  TEMP    WIND        PRES    WAVE   SWELL
                       AIR SEA DIR/SP/G            HT/PER HT/PER
                 (UTC) (F)     (DEG/KT/KT) (MB)    (FT/S) (FT/S)
BRANDYWINE LGT   1148          360/ 16/ 18   N/A
CAPE MAY NJ      1148   69 70  340/ 10/ 16 1020.7R
LEWES DE         1148   66 70  310/  9/ 10 1021.0R
15NM E FENWICK I 1150   67 66  340/ 12/ 14 1021.2R   2/ 4
OCEAN-CITY-INLET 1148   67 67  360/  8/ 10 1021.5R
WACHAPREAGUE VA  1148   68 76   30/  7/  9 1021.5R
THOMAS POINT MD  1200   67 76  330/  5/  6   N/A
GOOSES REEF MD   1150   71      30/  8/ 10 1022.4R
COVE POINT MD    1148   70      70/  5/  9 1022.3R
SOLOMONS ISLAND  1148   71 78   CALM  /  3   N/A
BISHOPS HEAD MD  1148   69 75   10/  4/  7 1021.8R
PINEY POINT MD   1148           40/  4/  5   N/A
POTOMAC MD       1150   72      20/  6/ 10 1020.8R
CAMBRIDGE MD     1148   72 79              1022.3R
LEWISETTA VA     1148   72 77   60/  3/  5 1021.6R
RAPPAHANNOCK LGT 1148           20/ 13/ 16 1022.2R
STINGRAY PT      1150   72      60/  8/ 10 1021.6R
YORK RVR RNG VA  1148   71      20/  9/ 11 1021.8R
YORKTOWN VA      1148   69 78   10/  8/ 10 1021.3R
JAMESTOWN VA     1150   68     360/  4/  6   N/A
DOMINION TERM VA 1148   72      60/  2/  4 1021.7R
KIPTOPEKE VA     1142      72   40/  6/ 10   N/A
CHES BAY BRIDGE  1148   71 76   60/ 14/ 17 1021.2R
CAPE HENRY VA    1148   70      30/ 14/ 16   N/A
WILLOUBY STN VA  1148   72      50/ 13/ 15 1021.3R
S CRANEY ISL VA  1148   72      60/ 11/ 12 1021.1R
CAPE HENRY BUOY  1130      70                N/A     3/ 4
1ST LANDING BUOY 1150   72                 1021.8R
CAPE CHARLES BUO 1151      67                N/A     3/ 4
64NM E OF VA BCH 1150   71 74   20/ 16/ 17 1020.7R   2/ 3
DUCK PIER NC     1148   72 74   30/ 18/ 21 1020.2R
44100 DUCK FRF   1105      72                N/A     2/ 9
OREGON INLET NC  1148          360/  7/ 11   N/A
HATTERAS NC      1148   77 78   10/ 12/ 15 1019.8R
DIAMOND SHLS NC  1150   76 79  360/ 12/ 16 1019.6R   2/ 9   2/ 9
CAPE LOOKOUT NC  1100   75      20/  8/ 10 1019.5R
$$



USA.gov is the U.S. government's official web portal to all federal, state and local government web resources and services.